Погода в Мурсии

Испания     37°58′46″N   1°07′48″W
темп.,
°C
ветер,
м/с
пор.,
м/с
влажн.,
%
обл.,
%
осадки,
мм/ч
давл.,
гПа
погр.,
м
22 января, пт
пт2201:00+13юз61160100 0.0 1016300
04:00+13юз6106097 0.0 1013254
07:00+12ююз586282 0.0 1011140
10:00+16з317561 0.0 10111500
13:00+19зсз2026391 0.0 10111631
16:00+16зсз1724390 0.0 10111930
19:00+12зсз1221561 0.0 10141123
22:00+11сз818530 0.0 1016984
23 января, сб
сб2301:00+9юз455638 0.0 101778
04:00+9ююз346124 0.0 101753
07:00+7ююз237113 0.0 101747
10:00+9сз125957 0.0 1018183
13:00+13ю234355 0.0 10171306
16:00+15всв123779 0.0 10151118
19:00+12юз444889 0.0 101352
22:00+11ююз6106038 0.0 1012255
24 января, вс
вс2401:00+12юз7136147 0.0 1010297
04:00+13юз61066100 0.0 1007195
07:00+13з41066100 0.0 1009361
10:00+13зсз31252100 0.0 10131076
13:00+17сз6734100 0.0 10131331
16:00+18зсз1334100 0.0 10131208
19:00+12сз2356100 0.0 101453
22:00+11зсз1261100 0.0 101643
25 января, пн
пн2501:00+10зсз1267100 0.0 101732
04:00+9зсз1170100 0.0 101731
07:00+8ссз1173100 0.0 101822
10:00+12сз115899 0.0 102067
13:00+15зсз014654 0.0 1020850
16:00+16св214133 0.0 10191126
19:00+12ю346766 0.0 102180
22:00+10юз34823 0.0 102373
26 января, вт
вт2601:00+10зсз128124 0.0 102327
04:00+8ссз12800 0.0 102322
07:00+8зсз12810 0.0 102324
10:00+13зсз11610 0.0 102484
13:00+17ссз12500 0.0 1024579
16:00+19ююз12472 0.0 10221086
19:00+14ю126721 0.0 102323
22:00+13з1173100 0.0 102523